Content
SEND FEEDBACK

Daily
Averages
Monthly
Summary
United States of America

PYGA BEACH, GUAM


Home > North America > United States > Guam
Elevation: 20 feet     Latitude: 13 17N     Longitude: 144 39E

WEATHER
 
SELECT A DAY
Number of Records: 342,554;   Date Range: 1/1/95 - 9/16/14
 
SHARE

PRINT THIS DATA

[ ← Previous Day ]
WEATHER ALMANAC - JUNE 12, 2013
[ Next Day → ]
[ °C ]   °F
Weather ElementAverageHighLow
Temperature81.7 °F88.2 °F (10:55 am)78.8 °F (1:40 am)
Dewpoint75.1 °F77.2 °F (2:55 am)73 °F (7:55 am)
Humidity81 %89 % (12:52 am)65 % (10:55 am)
Barometer29.79 in29.83 in (1:40 am)29.75 in (3:55 pm)
Wind Speed15.6 mph21.9 mph (7:55 am)
Wind Gust26.5 mph (6:55 am)
Weather ElementAverage
Visibility10 mi
Wind DirectionENE (70 °)

Weather ElementTotal
Precipitation---
Cooling Degree Days18.5 (Base 65)
Growing Degree Days33.5 (Base 50)
Averaged from 73 records on June 12, 2013
WEATHER CONDITIONS BREAKOUT
WIND DIRECTION BREAKOUT
WEATHER BY HOUR - JUNE 12, 2013
[ °C ]   °F
Local TimeTemperatureDewpointHumidityBarometerVisibilityWind DirectionWind SpeedGust SpeedPrecipitationEventsConditions
12:11 AM80.6 °F75.2 °F84 %29.81 in10.0 miEast (90°)13.8 mphThunderstormThunderstorm
12:13 AM80.6 °F75.2 °F84 %29.81 in10.0 miEast (90°)12.7 mphThunderstormThunderstorm
12:24 AM80.6 °F75.2 °F84 %29.81 in10.0 miEast (90°)10.4 mphScattered Clouds
12:36 AM80.6 °F75.2 °F84 %29.81 in10.0 miEast (90°)12.7 mphMostly Cloudy
12:52 AM80.6 °F77.0 °F89 %29.81 in10.0 miEast (90°)11.5 mphMostly Cloudy
12:55 AM81.0 °F76.5 °F86 %29.81 in10.0 miEast (90°)9.2 mphMostly Cloudy
1:00 AM80.6 °F77.0 °F89 %29.80 in10.0 miEast (80°)9.2 mphMostly Cloudy
1:06 AM80.6 °F77.0 °F89 %29.81 in10.0 miEast (80°)9.2 mphMostly Cloudy
1:13 AM80.6 °F77.0 °F89 %29.81 in10.0 miEast (80°)13.8 mphMostly Cloudy
1:33 AM80.6 °F77.0 °F89 %29.80 in10.0 miEast (80°)16.1 mphMostly Cloudy
1:39 AM80.6 °F77.0 °F89 %29.80 in10.0 miEast (80°)16.1 mphMostly Cloudy
1:40 AM78.8 °F75.2 °F89 %29.83 in10.0 miENE (70°)13.8 mphThunderstormThunderstorm
1:55 AM79.2 °F74.7 °F86 %29.80 in10.0 miENE (60°)15.0 mphThunderstormThunderstorm
2:10 AM78.8 °F73.4 °F83 %29.80 in10.0 miENE (70°)9.2 mphThunderstormScattered Clouds
2:51 AM80.6 °F77.0 °F89 %29.78 in10.0 miEast (80°)10.4 mphThunderstormMostly Cloudy
2:52 AM80.6 °F77.0 °F89 %29.78 in10.0 miENE (70°)11.5 mphThunderstormMostly Cloudy
2:55 AM80.6 °F77.2 °F89 %29.79 in10.0 miENE (70°)16.1 mphMostly Cloudy
2:56 AM80.6 °F77.0 °F89 %29.79 in10.0 miENE (70°)17.3 mphLight Drizzle
3:01 AM80.6 °F77.0 °F89 %29.78 in10.0 miENE (70°)19.6 mphLight Drizzle
3:07 AM80.6 °F75.2 °F84 %29.78 in10.0 miEast (80°)17.3 mphMostly Cloudy
3:27 AM80.6 °F77.0 °F89 %29.79 in10.0 miENE (70°)16.1 mphScattered Clouds
3:28 AM80.6 °F77.0 °F89 %29.79 in10.0 miENE (70°)13.8 mphMostly Cloudy
3:32 AM80.6 °F77.0 °F89 %29.80 in10.0 miENE (70°)18.4 mphScattered Clouds
3:33 AM80.6 °F77.0 °F89 %29.80 in10.0 miENE (70°)17.3 mphMostly Cloudy
3:43 AM80.6 °F75.2 °F84 %29.79 in10.0 miENE (60°)13.8 mphScattered Clouds
3:55 AM80.8 °F76.3 °F86 %29.78 in10.0 miENE (60°)15.0 mph0.00 inScattered Clouds
3:57 AM80.6 °F77.0 °F89 %29.78 in10.0 miNE (50°)16.1 mphMostly Cloudy
4:10 AM80.6 °F77.0 °F89 %29.78 in10.0 miENE (60°)17.3 mphScattered Clouds
4:11 AM80.6 °F77.0 °F89 %29.78 in10.0 miNE (50°)19.6 mphMostly Cloudy
4:13 AM80.6 °F77.0 °F89 %29.78 in10.0 miNE (50°)18.4 mphScattered Clouds
4:18 AM80.6 °F77.0 °F89 %29.79 in10.0 miENE (60°)19.6 mph25.3 mphMostly Cloudy
4:30 AM80.6 °F75.2 °F84 %29.79 in10.0 miENE (60°)19.6 mphMostly Cloudy
4:55 AM80.8 °F74.8 °F82 %29.80 in10.0 miENE (60°)17.3 mphMostly Cloudy
5:12 AM80.6 °F75.2 °F84 %29.81 in10.0 miENE (60°)15.0 mphMostly Cloudy
5:40 AM80.6 °F75.2 °F84 %29.81 in10.0 miENE (60°)18.4 mphScattered Clouds
5:55 AM80.8 °F74.7 °F82 %29.81 in10.0 miENE (60°)16.1 mphPartly Cloudy
6:36 AM80.6 °F75.2 °F84 %29.82 in10.0 miENE (60°)19.6 mphMostly Cloudy
6:42 AM80.6 °F73.4 °F79 %29.82 in10.0 miENE (60°)20.7 mph25.3 mphScattered Clouds
6:55 AM81.5 °F73.9 °F78 %29.83 in10.0 miENE (60°)18.4 mph26.5 mphScattered Clouds
7:55 AM83.8 °F73.0 °F70 %29.83 in10.0 miENE (60°)21.9 mphClear
8:55 AM85.1 °F74.3 °F70 %29.83 in10.0 miENE (60°)20.7 mphClear
9:55 AM84.9 °F74.8 °F72 %29.83 in10.0 miENE (60°)19.6 mph25.3 mphClear
10:55 AM88.2 °F75.0 °F65 %29.83 in10.0 miENE (70°)17.3 mph24.2 mphClear
11:55 AM84.9 °F73.6 °F69 %29.81 in10.0 miENE (60°)13.8 mphPartly Cloudy
12:55 PM84.6 °F73.9 °F70 %29.78 in10.0 miENE (70°)13.8 mphScattered Clouds
1:55 PM85.8 °F73.4 °F66 %29.77 in10.0 miENE (70°)17.3 mph24.2 mphPartly Cloudy
2:12 PM86.0 °F73.4 °F66 %29.77 in10.0 miENE (60°)18.4 mphMostly Cloudy
2:22 PM86.0 °F73.4 °F66 %29.77 in10.0 miENE (60°)19.6 mphMostly Cloudy
2:55 PM85.5 °F73.2 °F67 %29.76 in10.0 miENE (60°)17.3 mph24.2 mphPartly Cloudy
3:55 PM85.8 °F74.3 °F68 %29.75 in10.0 miEast (80°)16.1 mph23.0 mphPartly Cloudy
4:34 PM84.2 °F75.2 °F74 %29.76 in10.0 miENE (60°)15.0 mphMostly Cloudy
4:44 PM84.2 °F75.2 °F74 %29.76 in10.0 miENE (60°)16.1 mphScattered Clouds
4:48 PM84.2 °F75.2 °F74 %29.76 in10.0 miENE (70°)15.0 mphMostly Cloudy
4:55 PM84.2 °F74.1 °F72 %29.76 in10.0 miENE (60°)17.3 mphMostly Cloudy
5:06 PM84.2 °F75.2 °F74 %29.76 in10.0 miENE (60°)15.0 mph21.9 mphScattered Clouds
5:16 PM82.4 °F73.4 °F74 %29.76 in10.0 miEast (80°)17.3 mphMostly Cloudy
5:18 PM82.4 °F73.4 °F74 %29.76 in10.0 miENE (70°)17.3 mphScattered Clouds
5:55 PM82.8 °F74.1 °F75 %29.77 in10.0 miENE (70°)17.3 mphScattered Clouds
6:55 PM81.3 °F73.6 °F77 %29.78 in10.0 miEast (80°)13.8 mphMostly Cloudy
7:55 PM81.1 °F73.2 °F77 %29.79 in10.0 miEast (80°)15.0 mphOvercast
8:21 PM80.6 °F73.4 °F79 %29.79 in10.0 miENE (70°)16.1 mphMostly Cloudy
8:27 PM80.6 °F73.4 °F79 %29.79 in10.0 miEast (80°)15.0 mphMostly Cloudy
8:49 PM80.6 °F73.4 °F79 %29.79 in10.0 miEast (80°)12.7 mphMostly Cloudy
8:54 PM80.6 °F75.2 °F84 %29.79 in10.0 miENE (70°)16.1 mphScattered Clouds
8:55 PM81.0 °F74.3 °F80 %29.79 in10.0 miENE (70°)16.1 mphMostly Cloudy
9:07 PM80.6 °F73.4 °F79 %29.79 in10.0 miEast (90°)15.0 mphScattered Clouds
9:55 PM80.8 °F73.8 °F79 %29.79 in10.0 miENE (70°)15.0 mphScattered Clouds
9:56 PM80.6 °F73.4 °F79 %29.79 in10.0 miENE (70°)15.0 mphMostly Cloudy
10:01 PM80.6 °F73.4 °F79 %29.79 in10.0 miENE (70°)16.1 mphScattered Clouds
10:55 PM80.8 °F74.3 °F81 %29.79 in10.0 miEast (80°)13.8 mphOvercast
11:11 PM80.6 °F75.2 °F84 %29.79 in10.0 miEast (80°)11.5 mphOvercast
11:13 PM80.6 °F75.2 °F84 %29.79 in10.0 miENE (70°)13.8 mphOvercast
11:55 PM80.6 °F74.3 °F81 %29.79 in10.0 miEast (80°)10.4 mphMostly Cloudy
Hourly data recorded from PGUA, located miles away from Pyga Beach, Guam







STORIES FROM OUR PARTNERS